N0OQA Weather Reports


Display with metric or nautical units.
time (UTC)temp
F
wind
direction
speed
MPH
gust
MPH
rain 1hr
in
rain 24hr
in
rain mn
in
humidity
%
barometer
mb
20260906114715 66 0 0.0 0.0 0.00 0.00 0.00 100 1020.8
20260906113713 67 0 0.0 0.0 0.00 0.00 0.00 100 1020.8
20260906113213 67 0 0.0 0.0 0.00 0.00 0.00 100 1020.9
20260906112713 67 0 0.0 0.0 0.00 0.00 0.00 100 1020.9
20260906111211 67 0 0.0 0.0 0.00 0.00 0.00 100 1020.8
20260906110710 67 0 0.0 0.0 0.00 0.00 0.00 100 1020.7
20260906110210 67 0 0.0 0.0 0.00 0.00 0.00 100 1020.6
20260906105710 67 0 0.0 0.0 0.00 0.00 0.00 100 1020.5
20260906105210 67 190 0.0 1.0 0.00 0.00 0.00 100 1020.4
20260906104709 67 173 3.0 7.0 0.00 0.00 0.00 100 1020.3
20260906103709 67 0 0.0 0.0 0.00 0.00 0.00 100 1020.2
20260906103209 67 0 0.0 0.0 0.00 0.00 0.00 99 1020.2
20260906102708 67 0 0.0 0.0 0.00 0.00 0.00 99 1020.4
20260906102208 67 0 0.0 0.0 0.00 0.00 0.00 99 1020.4
20260906101207 68 0 0.0 0.0 0.00 0.00 0.00 99 1020.5
20260906095206 68 0 0.0 0.0 0.00 0.00 0.00 98 1020.1
20260906094206 68 359 1.0 3.0 0.00 0.00 0.00 97 1019.9
20260906093205 68 0 0.0 0.0 0.00 0.00 0.00 97 1019.7
20260906092704 69 0 0.0 0.0 0.00 0.00 0.00 97 1019.8
20260906091703 69 0 0.0 0.0 0.00 0.00 0.00 97 1019.7
20260906085147 69 0 0.0 0.0 0.00 0.00 0.00 96 1019.8
20260906084647 69 62 0.0 1.0 0.00 0.00 0.00 96 1019.8
20260906084147 69 118 2.0 3.0 0.00 0.00 0.00 96 1019.7
20260906083145 69 307 0.0 2.0 0.00 0.00 0.00 95 1019.6
20260906082645 69 0 0.0 0.0 0.00 0.00 0.00 95 1019.7
20260906082141 69 0 0.0 0.0 0.00 0.00 0.00 95 1019.8
20260906081641 69 0 0.0 0.0 0.00 0.00 0.00 95 1019.8
20260906075137 69 0 0.0 0.0 0.00 0.00 0.00 94 1019.9
20260906070133 70 0 0.0 0.0 0.00 0.00 0.00 93 1020.2
20260906064631 69 0 0.0 0.0 0.00 0.00 0.00 93 1020.2
20260906064130 70 0 0.0 0.0 0.00 0.00 0.00 93 1020.2
20260906055123 70 0 0.0 0.0 0.00 0.00 0.00 90 1020.0
20260906053622 71 0 0.0 0.0 0.00 0.00 0.00 89 1020.0
20260906053122 71 0 0.0 0.0 0.00 0.00 0.00 89 1020.2
20260906052122 71 0 0.0 0.0 0.00 0.00 0.00 89 1020.0
20260906051121 71 200 0.0 3.0 0.00 0.00 0.00 88 1020.1
20260906050121 72 0 0.0 0.0 0.00 0.00 0.00 87 1020.1
20260906044620 72 0 0.0 0.0 0.00 0.00 0.00 86 1020.2
20260906040617 73 0 0.0 0.0 0.00 0.00 0.00 83 1020.3
20260906034113 73 79 3.0 3.0 0.00 0.00 0.00 82 1020.3
20260906031612 74 181 3.0 5.0 0.00 0.00 0.00 83 1020.4
20260906025610 74 160 0.0 1.0 0.00 0.00 0.00 82 1020.3
20260906024609 74 25 1.0 4.0 0.00 0.00 0.00 83 1020.2
20260906024109 74 59 1.0 2.0 0.00 0.00 0.00 84 1020.3
20260906021604 74 0 0.0 0.0 0.00 0.00 0.00 85 1020.0
20260906011557 77 0 0.0 0.0 0.00 0.00 0.00 76 1018.3
20260906011056 77 0 0.0 0.0 0.00 0.00 0.00 75 1018.3
20260906000039 80 72 0.0 3.0 0.00 0.00 0.00 68 1017.6
20260905235539 80 69 1.0 3.0 0.00 0.00 0.00 67 1017.7
20260905232537 81 30 5.0 12.0 0.00 0.00 0.00 65 1017.6
20260905230035 81 7 5.0 10.0 0.00 0.00 0.00 63 1017.7
20260905225035 82 97 5.0 10.0 0.00 0.00 0.00 63 1017.5
20260905223034 82 13 7.0 13.0 0.00 0.00 0.00 61 1017.4
20260905222533 82 108 4.0 10.0 0.00 0.00 0.00 60 1017.3
20260905212027 83 68 4.0 7.0 0.00 0.00 0.00 59 1018.1
20260905211527 83 60 3.0 6.0 0.00 0.00 0.00 61 1018.0
20260905210026 83 163 5.0 12.0 0.00 0.00 0.00 60 1018.2
20260905205526 83 8 7.0 9.0 0.00 0.00 0.00 61 1018.3
20260905205026 84 18 3.0 10.0 0.00 0.00 0.00 60 1018.5
20260905204025 83 46 2.0 6.0 0.00 0.00 0.00 62 1018.7
20260905202023 82 38 3.0 5.0 0.00 0.00 0.00 64 1019.3
20260905201523 80 7 6.0 10.0 0.00 0.00 0.00 64 1019.4
20260905195521 80 0 0.0 0.0 0.00 0.00 0.00 66 1019.6
20260905190017 78 0 4.0 8.0 0.00 0.00 0.00 71 1019.9
20260905175012 76 23 4.0 7.0 0.00 0.00 0.00 79 1020.4
20260905172510 75 159 4.0 6.0 0.00 0.00 0.00 83 1020.5
20260905165508 73 242 4.0 7.0 0.00 0.00 0.00 89 1020.5
20260905163959 72 59 3.0 6.0 0.00 0.00 0.00 93 1020.3
20260905153954 67 0 0.0 0.0 0.00 0.00 0.00 100 1021.0
20260905152951 67 340 2.0 3.0 0.00 0.00 0.00 100 1021.1
20260905151951 67 356 3.0 4.0 0.00 0.00 0.00 100 1020.9
20260905140945 65 20 4.0 6.0 0.00 0.00 0.00 100 1020.4
20260905135944 65 11 4.0 7.0 0.00 0.00 0.00 100 1020.4
20260905134443 65 0 0.0 0.0 0.00 0.00 0.00 100 1020.6
20260905133943 64 10 3.0 3.0 0.00 0.00 0.00 100 1020.5
20260905133443 64 332 5.0 7.0 0.00 0.00 0.00 100 1020.4
20260905131441 64 0 0.0 0.0 0.00 0.00 0.00 100 1019.9
20260905122442 64 10 5.0 8.0 0.00 0.00 0.00 100 1019.2
20260905120437 63 14 6.0 8.0 0.00 0.00 0.00 100 1019.2
20260905115937 63 7 6.0 8.0 0.00 0.00 0.00 100 1019.1